Location: Fundy National Park
(45.6138°N, 65.0316°W)
Time: 12:54:05
(UTC-04:00)

BlueWalker 3 - Pass Details

Date: 28 November 2022
Orbit: 499 x 517 km, 53.2° (Epoch: 01 February)

Event Time Altitude Azimuth Distance (km) Brightness Sun altitude
Rises 17:57:38 0° 261° (W) 2,625 7.5 -13.4°
Reaches altitude 10° 17:59:56 10° 269° (W) 1,736 6.0 -13.7°
Maximum altitude 18:03:39 40° 340° (NNW) 765 2.9 -14.4°
Enters shadow 18:05:48 21° 38° (NE) 1,180 3.3 -14.7°
